Regional Weather Roundup
Issued by NWS Pendleton, OR

Home | Current Version | Previous Version | Text Only | Print | Product List | Glossary On
Versions: 1 2 3 4 5 6 7 8 9 10 11 12 13 14 15 16 17 18 19 20 21 22 23 24 25 26 27 28 29 30 31 32 33 34 35 36 37 38 39 40 41 42 43 44 45 46 47 48 49 50
000
ASUS46 KPDT 200025
RWRPDT
PENDLETON REGIONAL WEATHER ROUNDUP
NATIONAL WEATHER SERVICE PENDLETON OREGON
500 PM PDT TUE SEP 19 2017

NOTE: FAIR INDICATES FEW OR NO CLOUDS BELOW 12,000 FEET WITH NO
SIGNIFICANT WEATHER AND/OR OBSTRUCTIONS TO VISIBILITY.

# INDICATES UNOFFICIAL STATION AND DATA

WAZ520-200110-
EAST SLOPES OF WASHINGTON CASCADES

CITY            SKY/WX      TMP DP  RH  WIND    PRES   REMARKS
#BULLFROG       N/A         52  43  71  CALM    N/A
#CLE ELUM HS    N/A         51  40  66  NW1     29.69S
#CLE ELUM LAKE  N/A         45  42  89  CALM    29.90S
#EASTON DOT     N/A         45  44  96  CALM    N/A
#ELK HTS DOT    N/A         51  51  100 NW3     N/A
#GLENWOOD       N/A         49  46  89  CALM    29.78S
#NELSON 3SW     N/A         45  42  89  CALM    29.92S
#NILE           N/A         53  39  59  CALM    28.98F
#TEANAWAY 4NE   N/A         52  42  69  W2      N/A
#TROUT LAKE 1NE N/A         49  45  86  CALM    29.80S
#TROUT LAKE 1E  N/A         48  45  89  CALM    29.83
$$

WAZ521-200110-
SIMCOE HIGHLANDS

CITY            SKY/WX      TMP DP  RH  WIND    PRES   REMARKS
#BICKLETON HS   N/A         50  45  83  SW28    29.66S
#CENTERVILLE 1SWN/A         53  45  74  W12     29.76
#GOLDENDALE 1NE N/A         58  28  32  SW5     N/A
#GOLDENDALE 4W  N/A         51  37  59  W8      29.85S
#GOODNOE HILLS  N/A         57  45  64  W12     N/A
#LYLE 6NE       N/A         53  48  83  SW7     29.81
#PITT 4SE       N/A         49  46  89  W5      29.83F
$$

WAZ026-200110-
KITTITAS VALLEY

CITY            SKY/WX      TMP DP  RH  WIND    PRES   REMARKS
ELLENSBURG AP   MOCLDY      58  40  51  N17G24  29.70
6HR MIN TEMP:   56; 6HR MAX TEMP:   63; 6HR PCP:  TRACE;

#ELLENSBURG CWU N/A         54  41  61  N7      29.64
#ELLENSBURG 3NE N/A         55  42  61  N10     27.79F
#ELLENSBURG 1E  N/A         54  41  61  N2      29.74
#KITTITAS 3S    N/A         54  43  66  NW5     29.68F
#MANASTASH RDG  N/A         52  51  96  N12     N/A
#ROCKY CYN DOT  N/A         57  39  51  NW6     N/A
#RYEGRASS DOT   N/A         50  38  63  W15G26  N/A
$$

WAZ027-200110-
YAKIMA VALLEY

CITY            SKY/WX      TMP DP  RH  WIND    PRES   REMARKS
SUNNYSIDE AP    PTCLDY      58  38  47  SW14    29.73S
YAKIMA AIRPORT  MOCLDY      60  38  44  W25G31  29.72
6HR MIN TEMP:   58; 6HR MAX TEMP:   68;

YAKIMA-VAGABOND LGT RAIN    55  37  51  W16G25  29.71S
#DONALD 2NE     N/A         59  10  14  S8      28.59R
#GRANDVIEW      N/A         61  36  39  SW1     29.74S
#MABTON         N/A         62  41  46  W9      29.73S
#MOXEE 2E       N/A         56  N/A N/A W5      29.70R
#NACHES 2SW     N/A         52  41  66  SW6     29.72S
#OUTLOOK DOT    N/A         62  36  38  CALM    29.70
#PARKER DOT     N/A         61  35  38  NE13    29.71
#TERRACE HTS    N/A         57  38  49  NW7     29.69
#TOPPENISH      N/A         61  39  44  W12G26  29.64
#I82 S UMTANUM RN/A         54  33  45  SW22G30 N/A
#UNION GAP DOT  N/A         60  36  41  NW9     29.75
#W YAKIMA       N/A         54  38  55  W2      29.73R
#WHITE SWAN 5E  N/A         62  43  50  W7      29.73S
#WILEY CITY 3W  N/A         58  33  39  W1      29.70F
#ZILLAH DOT     N/A         62  35  36  SW18G26 N/A
$$

WAZ028-200110-
LOWER COLUMBIA BASIN...WASHINGTON

CITY            SKY/WX      TMP DP  RH  WIND    PRES   REMARKS
HANFORD         MOCLDY      64  37  37  W18G29  29.70
PASCO           PTCLDY      65  40  40  SW28G43 29.73
6HR MIN TEMP:   59; 6HR MAX TEMP:   67;

PROSSER AWOS    N/A         63  39  41  W17     29.76S
RICHLAND AWOS   PTCLDY      66  40  38  SW25G32 29.72R
#BENTON CITY    N/A         62  40  44  W2      29.63S
#CONNELL 5N     N/A         53  46  77  SW1     29.71
#CONNELL 5NW    N/A         53  44  71  CALM    29.65F
#ELTOPIA 6NW    N/A         62  43  50  SW8G26  28.68
#KAHLOTUS       N/A         58  41  53  W24G37  29.70
#KENNEWICK 3S   N/A         61  43  51  N6      29.72
#PATERSON       N/A         62  43  50  NW17G31 29.74
#PROSSER DOT    N/A         62  39  43  SW10    29.74S
#SAGEMOOR 2W    N/A         60  43  53  SW13    29.56
#TOUCHET 2S     N/A         64  44  48  W15G28  29.73S
#WEST PASCO     N/A         65  44  46  CALM    29.70S
$$

WAZ029-200110-
FOOTHILLS OF THE BLUES...WASHINGTON

CITY            SKY/WX      TMP DP  RH  WIND    PRES   REMARKS
WALLA WALLA AP  CLOUDY      58  43  57  S18     29.77
6HR MIN TEMP:   53; 6HR MAX TEMP:   61; 6HR PCP:  0.13;

#CLYDE 6NW      N/A         60  42  51  SW22G32 29.70
#DAYTON SCHOOL  N/A         56  38  51  NE9G31  29.78
#PLEASANT VIEW 1N/A         57  41  55  S17G25  29.75
#PRESCOTT       N/A         63  43  48  CALM    29.74S
#WAITSBURG 6SSE N/A         54  41  61  SE7     29.79S
#WALLA WALLA 5E N/A         56  45  66  S15     N/A
#WHITMAN MISSIONN/A         62  44  52  SW9     29.78
$$

WAZ030-200110-
BLUE MOUNTAINS...WASHINGTON

CITY            SKY/WX      TMP DP  RH  WIND    PRES   REMARKS
#DIXIE 5SE      N/A         48  40  74  S15     29.70  WCI 42
$$

ORZ009-041-WAZ024-200110-
COLUMBIA RIVER GORGE

CITY            SKY/WX      TMP DP  RH  WIND    PRES   REMARKS
HOOD RIVER AP   CLOUDY      61  45  56  S9      29.81S
THE DALLES AP   CLOUDY      64  42  45  W25G36  29.79
6HR MIN TEMP:   58; 6HR MAX TEMP:   66; 6HR PCP:  TRACE;

#CELILO DOT     N/A         65  41  41  W6      N/A
#LYLE           N/A         61  50  67  W2      29.80
#MARYHILL       N/A         59  40  49  N14     N/A
#RUFUS DOT      N/A         63  N/A N/A NW12    N/A
#SMITHVILLE     N/A         61  48  62  N5      29.81R

$$

ORZ510-200110-
NORTH CENTRAL OREGON

CITY            SKY/WX      TMP DP  RH  WIND    PRES   REMARKS
#ANTELOPE       N/A         53  36  52  W14     29.71R
#CHENOWITH 1W   N/A         52  47  83  NW9     N/A
#COW CYN RST AREN/A         51  35  54  SW15    N/A
#DUFUR          N/A         59  43  55  SW2     29.77
#DUFUR 9E       N/A         51  41  68  SW14    29.87S
#GRASS VALLEY 1SN/A         51  40  66  W20G26  29.86
#KENT DOT       N/A         48  39  71  W14     N/A    WCI 42
#MAUPIN SCHOOL  N/A         55  44  66  W9      29.89S
#MORO SCHOOL    N/A         53  46  77  E2      29.82R
#SHANIKO 4NW    N/A         48  35  60  W23G36  29.83  WCI 40
#TYGH VALLEY 2NEN/A         55  41  59  N9      29.83
#WAPANITIA AIRPON/A         53  44  71  W6      29.86
#WASCO 5NE      N/A         57  41  55  SW10    29.78F
$$

ORZ511-200110-
CENTRAL OREGON

CITY            SKY/WX      TMP DP  RH  WIND    PRES   REMARKS
BEND AIRPORT    PTCLDY      55  34  45  SW13    29.88R
MADRAS AIRPORT  CLOUDY      55  55  100 W5      29.88S
PRINEVILLE AP   CLOUDY      52  36  54  W16     29.88
REDMOND AIRPORT MOCLDY      53  35  50  NW10    29.86
6HR MIN TEMP:   45; 6HR MAX TEMP:   58; 6HR PCP:  0.01;

#ASHWOOD SCHOOL N/A         58  37  45  CALM    29.82
#BEND 1SW       N/A         52  39  61  S3      N/A
#BEND-AWBREY    N/A         52  39  61  SW14    29.86S
#BEND-KIM LN    N/A         55  39  55  SW9     29.79S
#CULVER         N/A         56  38  51  E7      29.74
#CULVER 8W      N/A         54  37  52  CALM    29.88S
#LAKE BILLY CHINN/A         54  N/A N/A SW5     29.92F
#MADRAS 4S      N/A         54  12  18  CALM    N/A
#POWELL BUTTE   N/A         51  38  61  NW6     29.84S
#PRINEVILLE     N/A         53  38  57  W7      29.94
#PRINEVILLE 3N  N/A         52  39  61  W17     29.85S
#WARM SPRINGS   N/A         59  39  47  CALM    29.68S

$$


ORZ509-200110-
EAST SLOPES OF OREGON CASCADES

CITY            SKY/WX      TMP DP  RH  WIND    PRES   REMARKS
SISTERS AWOS    N/A         50  39  66  SW18G25 N/A
#CAMP SHERMAN   N/A         50  39  66  W3      29.91S
#LA PINE 4NW    N/A         49  37  63  SW3     29.93S
#LAVA BUTTE DOT N/A         48  31  51  SW2     N/A
#SISTERS ODOT   N/A         50  38  63  SW8     N/A
#SISTERS 3N     N/A         48  42  80  W3      29.88S
#SUNRIVER       N/A         47  38  71  SW3     29.91S
#TUMALO 3W      N/A         52  36  54  NW5     29.73
#WANOGA BUTTE D N/A         38  35  89  W16     N/A    WCI 29

$$

ORZ044-200110-
LOWER COLUMBIA BASIN...OREGON

CITY            SKY/WX      TMP DP  RH  WIND    PRES   REMARKS
HERMISTON       PTCLDY      63  41  44  SW18G28 29.77
6HR MIN TEMP:   55; 6HR MAX TEMP:   65; 6HR PCP:  0.02;

#BOARDMAN SCHOOLN/A         64  42  45  S16G26  29.76S
#BOARDMAN 8SW   N/A         63  43  48  SW18    29.78R
#ECHO 8SW       N/A         62  42  48  W10     29.78S
#I-84 EX 198 DOTN/A         59  44  57  E14     N/A
#IONE SCHOOL    N/A         60  37  42  SW18G29 29.79
#UMATILLA       N/A         63  42  46  SW13    29.69S
$$

ORZ507-200110-
NORTHERN FOOTHILLS OF THE BLUES

CITY            SKY/WX      TMP DP  RH  WIND    PRES   REMARKS
PENDLETON AIRPT PTCLDY      58  46  64  SW10    29.79
6HR MIN TEMP:   51; 6HR MAX TEMP:   58; 6HR PCP:  0.06;

#ADAMS 3WNW     N/A         55  46  72  SW8     29.77
#ATHENA         N/A         56  44  64  SW5     29.80
#CAYUSE         N/A         55  45  69  S10     29.79
#HELIX SCHOOL   N/A         58  44  60  N15G28  29.77
#HELIX 3N       N/A         56  44  64  SW17G26 29.76
#HOLDMAN 6E     N/A         58  43  57  SW15    29.57S
#M-FREEWATER 5SEN/A         58  42  55  S1      29.80
#PENDLETON DNTN N/A         59  44  57  SW5     29.78
#PDT AQUATIC CTRN/A         58  45  62  S7      29.78
#PDT SUNRIDGE   N/A         60  46  60  W8      29.80F
#PENDLETON 7NW  N/A         57  45  64  SW12    N/A
#PILOT ROCK 1S  N/A         56  37  49  S7      29.82
#PILOT ROCK     N/A         59  41  51  CALM    29.83S
#TUTUILLA       N/A         55  47  74  S1      29.86
#UMAPINE 2E     N/A         62  46  56  SW7     29.75
#WESTON SCHOOL  N/A         54  41  61  NW8     29.70

$$

ORZ508-200110-
SOUTHERN FOOTHILLS OF THE BLUES

CITY            SKY/WX      TMP DP  RH  WIND    PRES   REMARKS
LEXINGTON       CLOUDY      61  37  41  W25G32  29.84R
#AJAX           N/A         53  32  45  W17G28  29.97
#FOSSIL SCHOOL  N/A         55  39  55  W10     29.79
#HEPPNER EOC    N/A         55  40  57  SW8     29.75S
#HEPPNER 4NE    N/A         52  38  59  W13     29.81
#LEXINGTON 2SE  N/A         62  39  43  W14     29.79S
#MIKKALO        N/A         57  35  43  W16G28  29.92S
#OLEX 4N        N/A         58  42  55  W21     29.80R
#RUGGS 5NE      N/A         54  38  55  SW12    30.01S
#RUGGS 2SW      N/A         53  41  64  W10     29.83S

$$

ORZ502-503-200110-
BLUE MOUNTAINS

CITY            SKY/WX      TMP DP  RH  WIND    PRES   REMARKS
MEACHAM         LGT RAIN    43  41  93  CALM    29.82
6HR MIN TEMP:   41; 6HR MAX TEMP:   48; 6HR PCP:  0.21;

#BATTLE MTN DOT N/A         46  32  58  SW2     N/A
#GRANITE        N/A         44  32  62  S2      29.74S
#GREENHORN 9SW  N/A         52  40  63  W3      29.86S
#HEPPNER 15SE   N/A         44  38  79  W2      29.67S
#LADD CYN SMT   N/A         49  37  63  N2      N/A
#LADD CREEK ODOTN/A         49  40  71  CALM    N/A
#LONG CREEK HS  N/A         51  41  68  CALM    N/A
#N POWDER DOT   N/A         53  34  48  N8      N/A
#PIKES PEAK     N/A         46  37  71  N21G31  27.99S WCI 38
#TOLLGATE       N/A         36  35  96  W6      29.69
#TROY SCHOOL    N/A         54  43  66  CALM    29.64S
#UKIAH          N/A         51  39  63  SW1     29.75
#WESTON 4E      N/A         48  42  80  S6      29.78
$$

ORZ505-200110-
JOHN DAY BASIN

CITY            SKY/WX      TMP DP  RH  WIND    PRES   REMARKS
JOHN DAY        PTCLDY      53  33  46  W10     29.85F
#JOHN DAY KJDY  N/A         56  N/A N/A SW7     28.87R
#ANTELOPE 9ESE  N/A         62  37  39  SW10    N/A
#DAYVILLE SCHOOLN/A         58  29  33  N7      29.81
#MITCHELL       N/A         55  38  53  CALM    30.03R
#MITCHELL 8NW   N/A         52  33  48  SW6     29.89
#MONUMENT HS    N/A         59  34  39  N6      29.79F
#MT. VERNON 5SE N/A         51  33  50  W2      29.81S
#SPRAY SCHOOL   N/A         63  N/A N/A CALM    N/A
$$

ORZ506-200110-
OCHOCO AND JOHN DAY HIGHLANDS

CITY            SKY/WX      TMP DP  RH  WIND    PRES   REMARKS
#HORSE RIDGE DO N/A         51  32  48  SW16    N/A
#PAULINA ODOT   N/A         54  34  47  W6      N/A
#PINE MTN OBS   N/A         40  33  76  SW2     N/A
#PRAIRIE CITY   N/A         54  39  57  W1      30.00S
#SENECA         N/A         50  N/A N/A SW8     N/A
#SENECA 9NW     N/A         49  34  56  SW2     29.86
$$

ORZ049-200110-
GRANDE RONDE VALLEY

CITY            SKY/WX      TMP DP  RH  WIND    PRES   REMARKS
LA GRANDE       LGT RAIN    51  40  66  N15     29.84
#COVE           N/A         49  46  89  W1      29.88
#COVE SCHOOL    N/A         49  43  80  CALM    29.87S
#COVE 6NW       N/A         50  41  71  NW7     29.85
#ELGIN 3N       N/A         47  41  79  S3      29.81S
#ELGIN 1E       N/A         46  40  79  CALM    N/A
#IMBLER SCHOOL  N/A         45  39  79  CALM    29.82
#ISLAND CITY 4N N/A         60  50  69  W7      29.85R
#LA GRANDE-LEFFEN/A         45  41  86  S10     26.88F
#UNION 1S       N/A         52  41  66  N2      29.83
$$

ORZ050-200110-
WALLOWA COUNTY

CITY            SKY/WX      TMP DP  RH  WIND    PRES   REMARKS
JOSEPH AIRPORT  LGT RAIN    45  37  73  W5      29.83
#ENTERPRISE HS  N/A         47  39  74  CALM    29.71
#IMNAHA SCHOOL  N/A         56  41  57  W3      29.81
#IMNAHA 10S     N/A         53  38  57  NE2     29.81R
#JOSEPH         N/A         44  37  76  CALM    30.05S
#JOSEPH 3N      N/A         45  34  65  CALM    29.86S
#JOSEPH 3W      N/A         39  39  100 CALM    30.15S
#LOSTINE        N/A         45  40  82  CALM    29.64R
#LOSTINE 3SE    N/A         46  37  71  NW2     29.87R
#MT HOWARD 8000 N/A         28  24  85  W6      29.81
#PROMISE 1S     N/A         42  38  86  S7      29.91
#WALLOWA LAKE   N/A         43  36  76  SE1     29.84S
#WALLOWA SCHOOL N/A         45  41  86  W1      29.82



$$



USA.gov is the U.S. government's official web portal to all federal, state and local government web resources and services.